Weather in Zasekovo

Russia / Udmurt Republic     57°51′09″N   52°25′50″E
temp.,
°C
wind,
m/s
gust,
m/s
humid.,
%
clouds,
%
prec.,
mm/h
press.,
hPa
HPBL,
m
17 may, tue
tue1701:00+9w1284100 0.8 99719
04:00+8wsw2289100 0.8 99751
07:00+9w2392100 0.1 997119
10:00+10wsw2387100 0.6 998199
13:00+13ne327491 1.4 998832
16:00+12n117299 2.5 998639
19:00+10nne348493 0.6 999390
22:00+8nne3695100 0.7 1000232
18 may, wed
wed1801:00+8ne3795100 0.1 999327
04:00+8ne5893100 0.1 999641
07:00+5nne5995100 2.6 1000495
10:00+4nne5796100 9.2 1001495
13:00+3nne4697100 5.1 1002501
16:00+3nne4898100 6.8 1003412
19:00+4n3797100 0.1 1004470
22:00+4n0198100 0.1 100497
19 may, thu
thu1901:00+4wnw2294100 0.0 100475
04:00+2nw3691100 0.1 1005156
07:00+4wnw4683100 0.0 1006431
10:00+6w4570100 0.3 10061206
13:00+7w5667100 0.6 10061417
16:00+7wnw5666100 1.4 10071413
19:00+6wnw467890 0.4 1007762
22:00+2wnw35917 0.5 100885
20 may, fri
fri2001:000wnw35955 0.0 100897
04:000wnw249689 0.0 100870
07:00+4wnw358524 0.0 1008419
10:00+7nw566278 0.4 10071403
13:00+7nnw676399 0.6 10071513
16:00+4nnw6884100 0.9 1009820
19:00+3nnw61297100 0.6 1009592
22:00+2nnw61197100 1.2 1009677
21 may, sat
sat2101:00+2nnw2698100 1.8 1008415
04:00+2nw489694 2.1 1008312
07:00+2nnw4687100 0.0 1008361
10:00+5nnw5674100 0.1 10081047
13:00+5nnw5669100 0.2 10081216
16:00+6nnw5662100 0.3 10081354
19:00+6nnw3463100 0.1 10081115
22:00+2n228181 0.1 100812